Location: 476 Grange Obs.
(45.1421°N, 7.1417°E)
Time: 22:10:14
(UTC+01:00)

Envisat - Pass Details

Date: 30 October 2019
Orbit: 764 x 766 km, 98.1° (Epoch: 17 November)

Event Time Altitude Azimuth Distance (km) Brightness Sun altitude
Rises 06:02:32 0° 32° (NNE) 3,240 6.6 -11.9°
Reaches altitude 10° 06:06:06 10° 58° (ENE) 2,307 6.3 -11.2°
Maximum altitude 06:08:36 14° 88° (E) 2,056 6.6 -10.8°
Drops below altitude 10° 06:11:07 10° 118° (ESE) 2,299 6.8 -10.4°
Sets 06:14:38 0° 144° (SE) 3,218 7.0 -9.7°
